This is the latest recevied weather packets stored in our database for station/object W7TJC. If no packets are shown the sender has not sent any weather packets the latest 10 day(s).
| Time | Temp. | Humidity | Pressure | Rain* | Wind** | Luminosity | Snow |
|---|---|---|---|---|---|---|---|
| 1777910390 | 16.67° C | 71% | 1012.1 hPa | 0 mm | - | 28 W/m² | - |
| 1777910087 | 16.67° C | 72% | 1012.1 hPa | 0 mm | - | 44 W/m² | - |
| 1777909785 | 16.11° C | 73% | 1012.1 hPa | 0 mm | - | 86 W/m² | - |
| 1777909481 | 15.56° C | 74% | 1012.2 hPa | 0 mm | - | 48 W/m² | - |
| 1777909179 | 15.56° C | 74% | 1012 hPa | 0 mm | - | 17 W/m² | - |
| 1777908877 | 15° C | 75% | 1012 hPa | 0 mm | - | 15 W/m² | - |
| 1777908574 | 15° C | 75% | 1011.9 hPa | 0 mm | - | 14 W/m² | - |
| 1777908270 | 15° C | 75% | 1011.9 hPa | 0 mm | - | 15 W/m² | - |
| 1777907967 | 14.44° C | 76% | 1011.9 hPa | 0 mm | - | 19 W/m² | - |
| 1777907662 | 13.89° C | 77% | 1011.7 hPa | 0 mm | - | 46 W/m² | - |
| 1777907358 | 13.89° C | 77% | 1011.9 hPa | 0 mm | - | 13 W/m² | - |
| 1777907055 | 13.89° C | 77% | 1012 hPa | 0 mm | - | 16 W/m² | - |
| 1777906752 | 13.89° C | 76% | 1011.8 hPa | 0 mm | - | 14 W/m² | - |
| 1777906449 | 13.89° C | 75% | 1011.4 hPa | 0 mm | - | 15 W/m² | - |
| 1777906145 | 13.33° C | 76% | 1011.7 hPa | 0 mm | - | 58 W/m² | - |
| 1777905842 | 12.78° C | 76% | 1011.7 hPa | 0 mm | - | 11 W/m² | - |
| 1777905539 | 12.78° C | 76% | 1011.7 hPa | 0 mm | - | 13 W/m² | - |
| 1777905235 | 12.22° C | 76% | 1011.6 hPa | 0 mm | - | 13 W/m² | - |
| 1777904933 | 12.22° C | 78% | 1011.6 hPa | 0 mm | - | 10 W/m² | - |
| 1777904630 | 12.78° C | 78% | 1011.8 hPa | 0 mm | - | 10 W/m² | - |
| 1777904327 | 12.78° C | 77% | 1011.7 hPa | 0 mm | - | 10 W/m² | - |
| 1777904024 | 12.78° C | 75% | 1011.4 hPa | 0 mm | - | 9 W/m² | - |
| 1777903721 | 12.78° C | 74% | 1011.5 hPa | 0 mm | - | 9 W/m² | - |
| 1777903417 | 12.78° C | 73% | 1011.3 hPa | 0 mm | - | 9 W/m² | - |
| 1777903114 | 12.22° C | 74% | 1011.5 hPa | 0 mm | - | 9 W/m² | - |
* Rain latest hour (hover to see other rain measurements)
** Current wind speed in m/s (hover to see current wind gust speed)